Simultaneous Nadir Overpasses (SNOs) Predictions

Prediction of SNOs between AQUA and METOP-C Satellite Orbit:

Table of predicted SNOs for the next 14.0 days since TLE Epoch: 12/18/2021
Index Date (AQUA) Time (AQUA) Lat,Lon (AQUA) SZA (AQUA ) Date (METOP-C) Time (METOP-C) Lat,Lon (METOP-C) SZA (METOP-C ) Distance(km) Time Diff (sec)
1 12/18/2021 10:59:28 -73.70,-170.33 82.95 12/18/2021 10:58:30 -73.71,-170.37 82.93 1.44 58
2 12/18/2021 11:48:57 73.78, -2.85 97.14 12/18/2021 11:49:09 73.80, -2.81 97.16 3.30 12
3 12/18/2021 12:38:32 -74.26, 163.69 82.36 12/18/2021 12:39:40 -74.28, 165.70 82.39 60.66 68
4 12/21/2021 06:33:46 -73.70,-103.89 82.90 12/21/2021 06:32:54 -73.69,-103.99 82.90 3.30 52
5 12/21/2021 07:23:15 73.78, 63.57 97.19 12/21/2021 07:23:33 73.79, 63.56 97.19 0.92 18
6 12/21/2021 08:12:54 -74.46,-130.37 82.09 12/21/2021 08:14:00 -74.46,-127.43 82.17 87.49 66
7 12/24/2021 02:08:03 -73.71, -37.48 82.91 12/24/2021 02:07:16 -73.73, -37.51 82.88 2.06 47
8 12/24/2021 02:57:32 73.80, 129.97 97.19 12/24/2021 02:57:55 73.82, 130.03 97.21 2.96 23
9 12/26/2021 21:42:21 -73.73, 28.91 82.96 12/26/2021 21:41:39 -73.75, 28.96 82.93 3.03 42
10 12/26/2021 22:31:49 73.77,-163.54 97.09 12/26/2021 22:32:19 73.79,-163.62 97.11 3.22 30
11 12/29/2021 17:16:38 -73.72, 95.38 83.11 12/29/2021 17:16:03 -73.73, 95.31 83.09 2.57 35
12 12/29/2021 18:06:07 73.81, -97.20 96.99 12/29/2021 18:06:42 73.81, -97.16 96.99 1.03 35



Historial Predications of SNOs between AQUA and METOP-C
